Starlink 30805

operational
NORAD ID: 58214 Int'l Des: 2023-170 Owner: SPXS Country: US Constellation: starlink
LEOCIRCULAR

Über Starlink 30805

Beschreibung wird geladen...

Live-Position

3D-Globus wird geladen...

Nächste Überflüge

Höhenverlauf

Altitude vs Time

uPlot chart will show altitude changes over time

Zweizeiliger Elementsatz

1 58214U 23170J 25258.21181605 .00000396 00000-0 44419-4 0 9993
2 58214 43.0028 69.3667 0001313 263.0446 97.0247 15.02537383103885
Epoch: 15. Sept. 2025 • Age: 9 hours

Aktueller Status

Höhe 571.4 km
Geschwindigkeit 7.58 km/s
Subsatellitenpunkt -42.86°S, 120.82°E
Startdatum 4. Nov. 2023
Alter 1.8 years
Typ internet

Technische Details

Klassifizierung Payload
Masse 730.00 kg
Trockenmasse 700.00 kg
Gesamtmasse 730.00 kg
Länge 0.30 m
Durchmesser 4.10 m
Spannweite 29.00 m
Form Box + pan
Hersteller SPXS
Bus-Typ Starlink V2M
Phasenstatus In Orbit
Besitzer/Staat SPXS/US

Große Konstellationen

Loading constellations...